AZU5198 SBKP-SBAQ

Flight info

Callsign AZU5198
Flight time 0h 37m
Altitude 8000
Route RCL
Aircraft C208/L-SDFGR/S

Departure

Time 2026-05-03 20:21
Airport Viracopos International Airport (SBKP)

Arrival

Time 2026-05-03 20:58
Airport Araraquara Airport (SBAQ)
Time Latitude Longitude Altitude Speed Heading
2026-05-03 20:15 -23.00209 -47.14917 2148 ft 0 kts 38°
2026-05-03 20:18 -23.00203 -47.14915 2148 ft 6 kts
2026-05-03 20:18 -23.00214 -47.14968 2148 ft 12 kts 262°
2026-05-03 20:18 -23.00162 -47.14993 2147 ft 10 kts 44°
2026-05-03 20:19 -23.00101 -47.14937 2147 ft 15 kts 38°
2026-05-03 20:19 -23.00008 -47.14842 2147 ft 20 kts 46°
2026-05-03 20:19 -22.99915 -47.14744 2147 ft 18 kts 53°
2026-05-03 20:19 -22.99906 -47.14622 2147 ft 17 kts 110°
2026-05-03 20:20 -23.00043 -47.14424 2150 ft 56 kts 127°
2026-05-03 20:20 -23.00366 -47.13966 2197 ft 90 kts 127°
2026-05-03 20:20 -23.00757 -47.13399 2401 ft 96 kts 131°
2026-05-03 20:20 -23.01175 -47.12824 2652 ft 97 kts 129°
2026-05-03 20:21 -23.01622 -47.12193 2724 ft 116 kts 128°
2026-05-03 20:21 -23.02147 -47.11501 2956 ft 119 kts 130°
2026-05-03 20:21 -23.02700 -47.10826 3209 ft 119 kts 133°
2026-05-03 20:21 -23.03245 -47.10180 3432 ft 115 kts 131°
2026-05-03 20:22 -23.03701 -47.09494 3731 ft 110 kts 125°
2026-05-03 20:22 -23.04111 -47.08768 3904 ft 114 kts 121°
2026-05-03 20:22 -23.04504 -47.08037 4179 ft 112 kts 121°
2026-05-03 20:22 -23.04958 -47.07361 4414 ft 109 kts 134°
2026-05-03 20:23 -23.05641 -47.07020 4680 ft 117 kts 166°
2026-05-03 20:23 -23.06457 -47.07201 4996 ft 123 kts 204°
2026-05-03 20:23 -23.07031 -47.07937 5203 ft 141 kts 242°
2026-05-03 20:23 -23.07093 -47.09005 5450 ft 147 kts 291°
2026-05-03 20:24 -23.06482 -47.09786 5860 ft 133 kts 320°
2026-05-03 20:24 -23.05790 -47.10396 6213 ft 125 kts 322°
2026-05-03 20:24 -23.05113 -47.10990 6498 ft 126 kts 322°
2026-05-03 20:24 -23.04394 -47.11545 6743 ft 128 kts 331°
2026-05-03 20:25 -23.03618 -47.12011 7008 ft 127 kts 330°
2026-05-03 20:25 -23.02858 -47.12488 7285 ft 125 kts 329°
2026-05-03 20:25 -23.02109 -47.12963 7566 ft 124 kts 329°
2026-05-03 20:25 -23.01370 -47.13437 7846 ft 123 kts 328°
2026-05-03 20:26 -23.00684 -47.13994 7998 ft 133 kts 320°
2026-05-03 20:26 -22.99898 -47.14619 8011 ft 147 kts 324°
2026-05-03 20:26 -22.99031 -47.15271 8010 ft 156 kts 325°
2026-05-03 20:26 -22.98121 -47.15946 8009 ft 161 kts 325°
2026-05-03 20:27 -22.97270 -47.16742 8010 ft 163 kts 310°
2026-05-03 20:27 -22.96443 -47.17587 8010 ft 165 kts 323°
2026-05-03 20:27 -22.95491 -47.18295 8008 ft 167 kts 326°
2026-05-03 20:27 -22.94525 -47.18994 8008 ft 168 kts 326°
2026-05-03 20:28 -22.93551 -47.19699 8009 ft 168 kts 326°
2026-05-03 20:28 -22.92578 -47.20406 8008 ft 169 kts 326°
2026-05-03 20:28 -22.91617 -47.21104 8005 ft 169 kts 326°
2026-05-03 20:28 -22.90642 -47.21812 8004 ft 169 kts 326°
2026-05-03 20:29 -22.89666 -47.22519 8002 ft 169 kts 326°
2026-05-03 20:29 -22.88690 -47.23228 8000 ft 169 kts 326°
2026-05-03 20:29 -22.87714 -47.23936 8000 ft 169 kts 326°
2026-05-03 20:29 -22.86736 -47.24646 7997 ft 169 kts 326°
2026-05-03 20:30 -22.85759 -47.25354 7996 ft 169 kts 326°
2026-05-03 20:30 -22.84782 -47.26063 7995 ft 169 kts 326°
2026-05-03 20:30 -22.83816 -47.26763 7991 ft 169 kts 326°
2026-05-03 20:30 -22.82838 -47.27472 7988 ft 169 kts 326°
2026-05-03 20:31 -22.81859 -47.28182 7988 ft 169 kts 326°
2026-05-03 20:31 -22.80878 -47.28892 7988 ft 169 kts 326°
2026-05-03 20:31 -22.79898 -47.29603 7984 ft 170 kts 326°
2026-05-03 20:31 -22.78918 -47.30313 7983 ft 169 kts 326°
2026-05-03 20:32 -22.77939 -47.31022 7982 ft 170 kts 326°
2026-05-03 20:32 -22.76957 -47.31733 7979 ft 169 kts 326°
2026-05-03 20:32 -22.75978 -47.32441 7975 ft 169 kts 326°
2026-05-03 20:32 -22.75015 -47.33139 7973 ft 169 kts 326°
2026-05-03 20:33 -22.74036 -47.33848 7969 ft 169 kts 326°
2026-05-03 20:33 -22.73060 -47.34554 7967 ft 169 kts 327°
2026-05-03 20:33 -22.72083 -47.35261 7963 ft 169 kts 326°
2026-05-03 20:33 -22.71105 -47.35969 7959 ft 169 kts 326°
2026-05-03 20:34 -22.70127 -47.36675 7961 ft 169 kts 326°
2026-05-03 20:34 -22.69150 -47.37382 7957 ft 169 kts 326°
2026-05-03 20:34 -22.68173 -47.38089 7957 ft 169 kts 326°
2026-05-03 20:34 -22.67210 -47.38785 7958 ft 169 kts 326°
2026-05-03 20:35 -22.66231 -47.39493 7956 ft 169 kts 327°
2026-05-03 20:35 -22.65254 -47.40199 7956 ft 169 kts 326°
2026-05-03 20:35 -22.64275 -47.40906 7954 ft 169 kts 326°
2026-05-03 20:35 -22.63298 -47.41612 7954 ft 169 kts 327°
2026-05-03 20:36 -22.62319 -47.42319 7955 ft 169 kts 326°
2026-05-03 20:36 -22.61342 -47.43024 7957 ft 169 kts 327°
2026-05-03 20:36 -22.60364 -47.43732 7952 ft 169 kts 327°
2026-05-03 20:36 -22.59387 -47.44439 7952 ft 169 kts 326°
2026-05-03 20:37 -22.58422 -47.45137 7950 ft 169 kts 327°
2026-05-03 20:37 -22.57444 -47.45845 7953 ft 169 kts 327°
2026-05-03 20:37 -22.56463 -47.46553 7952 ft 169 kts 327°
2026-05-03 20:37 -22.55483 -47.47260 7952 ft 169 kts 327°
2026-05-03 20:38 -22.54505 -47.47969 7948 ft 169 kts 327°
2026-05-03 20:38 -22.53526 -47.48680 7948 ft 169 kts 327°
2026-05-03 20:38 -22.52548 -47.49389 7948 ft 169 kts 327°
2026-05-03 20:38 -22.51568 -47.50097 7950 ft 169 kts 327°
2026-05-03 20:39 -22.50601 -47.50796 7944 ft 169 kts 327°
2026-05-03 20:39 -22.49621 -47.51504 7946 ft 169 kts 327°
2026-05-03 20:39 -22.48641 -47.52212 7946 ft 169 kts 327°
2026-05-03 20:39 -22.47659 -47.52921 7945 ft 169 kts 327°
2026-05-03 20:40 -22.46680 -47.53628 7943 ft 170 kts 327°
2026-05-03 20:40 -22.45700 -47.54340 7947 ft 170 kts 327°
2026-05-03 20:40 -22.44722 -47.55052 7944 ft 170 kts 327°
2026-05-03 20:40 -22.43741 -47.55767 7944 ft 170 kts 327°
2026-05-03 20:41 -22.42775 -47.56469 7948 ft 170 kts 327°
2026-05-03 20:41 -22.41843 -47.57252 7942 ft 170 kts 318°
2026-05-03 20:41 -22.40973 -47.58117 7943 ft 170 kts 319°
2026-05-03 20:41 -22.40082 -47.58961 7943 ft 171 kts 320°
2026-05-03 20:42 -22.39176 -47.59804 7945 ft 172 kts 320°
2026-05-03 20:42 -22.38269 -47.60643 7943 ft 171 kts 320°
2026-05-03 20:42 -22.37365 -47.61484 7944 ft 172 kts 320°
2026-05-03 20:42 -22.36457 -47.62326 7940 ft 172 kts 320°
2026-05-03 20:43 -22.35547 -47.63170 7941 ft 173 kts 320°
2026-05-03 20:43 -22.34648 -47.64004 7945 ft 173 kts 320°
2026-05-03 20:43 -22.33736 -47.64850 7944 ft 173 kts 320°
2026-05-03 20:43 -22.32823 -47.65696 7941 ft 173 kts 320°
2026-05-03 20:44 -22.31909 -47.66544 7946 ft 173 kts 320°
2026-05-03 20:44 -22.30994 -47.67393 7946 ft 174 kts 320°
2026-05-03 20:44 -22.30076 -47.68244 7946 ft 174 kts 320°
2026-05-03 20:44 -22.29157 -47.69095 7944 ft 174 kts 320°
2026-05-03 20:45 -22.28240 -47.69945 7946 ft 174 kts 320°
2026-05-03 20:45 -22.27321 -47.70791 7945 ft 174 kts 321°
2026-05-03 20:45 -22.26406 -47.71615 7945 ft 173 kts 321°
2026-05-03 20:45 -22.25475 -47.72436 7978 ft 171 kts 322°
2026-05-03 20:46 -22.24546 -47.73235 7994 ft 171 kts 323°
2026-05-03 20:46 -22.23600 -47.74027 7992 ft 173 kts 324°
2026-05-03 20:46 -22.22640 -47.74810 7989 ft 173 kts 324°
2026-05-03 20:46 -22.21671 -47.75585 7992 ft 174 kts 325°
2026-05-03 20:47 -22.20692 -47.76351 7993 ft 174 kts 326°
2026-05-03 20:47 -22.19705 -47.77105 7992 ft 174 kts 326°
2026-05-03 20:47 -22.18708 -47.77847 7989 ft 174 kts 327°
2026-05-03 20:47 -22.17715 -47.78565 7988 ft 174 kts 328°
2026-05-03 20:48 -22.16703 -47.79279 7987 ft 174 kts 328°
2026-05-03 20:48 -22.15681 -47.79980 7988 ft 174 kts 329°
2026-05-03 20:48 -22.14653 -47.80668 7989 ft 174 kts 330°
2026-05-03 20:48 -22.13617 -47.81342 7990 ft 174 kts 330°
2026-05-03 20:49 -22.12573 -47.82002 7986 ft 174 kts 331°
2026-05-03 20:49 -22.11523 -47.82649 7985 ft 174 kts 332°
2026-05-03 20:49 -22.10466 -47.83283 7987 ft 174 kts 333°
2026-05-03 20:49 -22.09401 -47.83902 7987 ft 174 kts 333°
2026-05-03 20:50 -22.08346 -47.84497 7983 ft 173 kts 334°
2026-05-03 20:50 -22.07272 -47.85084 7983 ft 173 kts 334°
2026-05-03 20:50 -22.06193 -47.85659 7984 ft 173 kts 335°
2026-05-03 20:50 -22.05107 -47.86221 7980 ft 173 kts 336°
2026-05-03 20:51 -22.04014 -47.86769 7982 ft 173 kts 336°
2026-05-03 20:51 -22.02925 -47.87318 7980 ft 173 kts 330°
2026-05-03 20:51 -22.02045 -47.88209 7892 ft 178 kts 310°
2026-05-03 20:51 -22.01300 -47.89288 7746 ft 179 kts 309°
2026-05-03 20:52 -22.00571 -47.90355 7589 ft 180 kts 308°
2026-05-03 20:52 -21.99829 -47.91445 7428 ft 182 kts 308°
2026-05-03 20:52 -21.99068 -47.92516 7368 ft 176 kts 310°
2026-05-03 20:52 -21.98297 -47.93572 7163 ft 182 kts 309°
2026-05-03 20:53 -21.97546 -47.94680 6962 ft 185 kts 306°
2026-05-03 20:53 -21.96804 -47.95817 6731 ft 187 kts 308°
2026-05-03 20:53 -21.96042 -47.96952 6543 ft 186 kts 308°
2026-05-03 20:53 -21.95275 -47.98046 6420 ft 182 kts 310°
2026-05-03 20:54 -21.94478 -47.99104 6169 ft 187 kts 312°
2026-05-03 20:54 -21.92833 -48.01320 5689 ft 192 kts 309°
2026-05-03 20:54 -21.92010 -48.02458 5460 ft 193 kts 309°
2026-05-03 20:55 -21.91178 -48.03590 5273 ft 192 kts 309°
2026-05-03 20:55 -21.90347 -48.04704 5108 ft 190 kts 311°
2026-05-03 20:55 -21.89489 -48.05792 4857 ft 191 kts 311°
2026-05-03 20:55 -21.88620 -48.06869 4607 ft 190 kts 312°
2026-05-03 20:56 -21.87707 -48.07898 4389 ft 190 kts 316°
2026-05-03 20:56 -21.86809 -48.08926 4096 ft 187 kts 314°
2026-05-03 20:56 -21.85954 -48.09917 3701 ft 175 kts 315°
2026-05-03 20:56 -21.85075 -48.10741 3429 ft 160 kts 327°
2026-05-03 20:57 -21.84173 -48.11363 3128 ft 149 kts 332°
2026-05-03 20:57 -21.83310 -48.11906 2841 ft 133 kts 329°
2026-05-03 20:57 -21.82602 -48.12381 2580 ft 115 kts 330°
2026-05-03 20:57 -21.81941 -48.12817 2378 ft 107 kts 328°
2026-05-03 20:58 -21.81396 -48.13177 2320 ft 68 kts 328°
2026-05-03 20:58 -21.81113 -48.13367 2308 ft 42 kts 330°
2026-05-03 20:58 -21.80871 -48.13526 2296 ft 39 kts 330°
2026-05-03 20:58 -21.80653 -48.13668 2285 ft 25 kts 328°
2026-05-03 20:59 -21.80533 -48.13745 2282 ft 14 kts 327°
2026-05-03 20:59 -21.80517 -48.13809 2280 ft 9 kts 224°
2026-05-03 20:59 -21.80557 -48.13861 2280 ft 9 kts 248°
2026-05-03 20:59 -21.80575 -48.13916 2279 ft 0 kts 259°